Regional Weather Roundup
Issued by NWS

Home | Current Version | Previous Version | Text Only | Print | Product List | Glossary Off
Versions: 1 2 3 4 5 6 7 8 9 10 11 12 13 14 15 16 17 18 19 20 21 22 23 24 25 26 27 28 29 30 31 32 33 34 35 36 37 38 39 40 41 42 43 44 45 46 47 48 49 50

000
ASUS43 KBIS 300220
RWRND

NORTH DAKOTA REGIONAL WEATHER ROUNDUP
NATIONAL WEATHER SERVICE BISMARCK ND
900 PM CDT TUE JUL 29 2014

NOTE: "FAIR" INDICATES FEW OR NO CLOUDS BELOW 12,000 FEET WITH NO
SIGNIFICANT WEATHER AND/OR OBSTRUCTIONS TO VISIBILITY.


NDZ001>003-009>011-017-300300-
NORTHWEST NORTH DAKOTA

CITY           SKY/WX    TMP DP  RH WIND       PRES   REMARKS
WILLISTON      CLEAR     78  55  44 NE9       30.15S
MINOT          PTCLDY    70  62  76 CALM      30.13S
$$

NDZ018>021-031>035-040>046-300300-
SOUTHWEST NORTH DAKOTA

CITY           SKY/WX    TMP DP  RH WIND       PRES   REMARKS
BISMARCK       CLEAR     73  58  59 NE7       30.13S
DICKINSON      CLEAR     68  57  68 E7        30.14R
GARRISON         N/A     71  63  75 E5        30.14R
HETTINGER ARPT MOCLDY    75  55  49 SE5       30.14S
$$

NDZ004>008-012>016-024-026-027-054-300300-
NORTHEAST NORTH DAKOTA

CITY           SKY/WX    TMP DP  RH WIND       PRES   REMARKS
GRAND FORKS    PTCLDY    67  61  81 NW3       30.08S
GRND FRKS AFB  CLEAR     68  59  73 N2        30.10S
DEVILS LAKE    CLEAR     70  54  56 CALM      30.11S
$$

NDZ022-023-025-028>030-036>039-047>053-300300-
SOUTHEAST NORTH DAKOTA

CITY           SKY/WX    TMP DP  RH WIND       PRES   REMARKS
FARGO          CLEAR     70  56  61 CALM      30.08S
JAMESTOWN      CLEAR     68  58  70 N5        30.12R
$$



USA.gov is the U.S. government's official web portal to all federal, state and local government web resources and services.